ANA323 RJTT-RJNT

Flight info

Callsign ANA323
Flight time 0h 41m
Altitude 32000
Route BEKLA4B BEKLA Y885 URUSI NANAO
Aircraft B738/M-SDE2E3FGHIRWXY/LB1

Departure

Time 2026-05-04 15:19
Airport Tokyo Haneda International Airport (RJTT)

Arrival

Time 2026-05-04 16:00
Airport Toyama Kitokito Airport (RJNT)
Time Latitude Longitude Altitude Speed Heading
2026-05-04 14:43 35.55118 139.79200 26 ft 0 kts 60°
2026-05-04 14:44 35.55174 139.79160 26 ft 0 kts 60°
2026-05-04 15:04 35.55167 139.79144 26 ft 4 kts 60°
2026-05-04 15:05 35.55153 139.79116 27 ft 2 kts 60°
2026-05-04 15:05 35.55145 139.79091 27 ft 4 kts 97°
2026-05-04 15:05 35.55156 139.79067 26 ft 4 kts 146°
2026-05-04 15:05 35.55174 139.79054 30 ft 0 kts 150°
2026-05-04 15:09 35.55170 139.79057 27 ft 4 kts 150°
2026-05-04 15:10 35.55042 139.79237 31 ft 21 kts 63°
2026-05-04 15:10 35.55114 139.79393 28 ft 20 kts 72°
2026-05-04 15:10 35.54963 139.79553 27 ft 15 kts 150°
2026-05-04 15:11 35.54866 139.79621 27 ft 18 kts 150°
2026-05-04 15:11 35.54742 139.79711 25 ft 25 kts 150°
2026-05-04 15:11 35.54571 139.79831 23 ft 31 kts 150°
2026-05-04 15:11 35.54383 139.79965 21 ft 27 kts 150°
2026-05-04 15:12 35.54271 139.80062 20 ft 16 kts 112°
2026-05-04 15:12 35.54291 139.80148 23 ft 0 kts 59°
2026-05-04 15:17 35.54292 139.80149 23 ft 2 kts 58°
2026-05-04 15:17 35.54393 139.80213 27 ft 8 kts 330°
2026-05-04 15:17 35.54460 139.80166 27 ft 28 kts 330°
2026-05-04 15:18 35.54842 139.79893 28 ft 97 kts 330°
2026-05-04 15:18 35.55593 139.79359 44 ft 150 kts 330°
2026-05-04 15:18 35.56546 139.78683 490 ft 168 kts 330°
2026-05-04 15:19 35.58856 139.77887 1533 ft 197 kts 14°
2026-05-04 15:19 35.59904 139.78918 2021 ft 218 kts 38°
2026-05-04 15:19 35.62100 139.81722 2887 ft 233 kts 33°
2026-05-04 15:20 35.63370 139.83060 3200 ft 250 kts 32°
2026-05-04 15:20 35.64778 139.84397 3679 ft 259 kts 22°
2026-05-04 15:20 35.66455 139.85011 4405 ft 254 kts
2026-05-04 15:20 35.68241 139.85387 5083 ft 263 kts
2026-05-04 15:21 35.70043 139.85526 5701 ft 262 kts 343°
2026-05-04 15:21 35.71712 139.84700 6376 ft 259 kts 323°
2026-05-04 15:21 35.74638 139.82036 7822 ft 261 kts 310°
2026-05-04 15:22 35.75592 139.80183 8544 ft 257 kts 288°
2026-05-04 15:22 35.76031 139.78059 9333 ft 255 kts 276°
2026-05-04 15:22 35.76437 139.73632 10464 ft 273 kts 273°
2026-05-04 15:23 35.76748 139.71218 10632 ft 298 kts 281°
2026-05-04 15:23 35.77358 139.68686 10799 ft 319 kts 284°
2026-05-04 15:23 35.78061 139.66042 10946 ft 338 kts 284°
2026-05-04 15:23 35.78810 139.63223 11189 ft 352 kts 284°
2026-05-04 15:24 35.80295 139.57475 12724 ft 348 kts 283°
2026-05-04 15:24 35.81729 139.51732 13883 ft 353 kts 282°
2026-05-04 15:25 35.82442 139.48857 14421 ft 355 kts 282°
2026-05-04 15:25 35.82940 139.45886 14982 ft 352 kts 269°
2026-05-04 15:25 35.82955 139.42872 15569 ft 353 kts 267°
2026-05-04 15:26 35.83007 139.36783 16670 ft 358 kts 268°
2026-05-04 15:26 35.83051 139.33709 17212 ft 360 kts 267°
2026-05-04 15:26 35.83146 139.27487 18250 ft 365 kts 267°
2026-05-04 15:27 35.83193 139.24343 18687 ft 367 kts 267°
2026-05-04 15:27 35.83473 139.18051 19709 ft 374 kts 276°
2026-05-04 15:28 35.85660 139.12103 20582 ft 395 kts 293°
2026-05-04 15:28 35.87162 139.09237 20902 ft 399 kts 294°
2026-05-04 15:28 35.90243 139.03484 21631 ft 403 kts 294°
2026-05-04 15:29 35.91779 139.00597 22145 ft 400 kts 294°
2026-05-04 15:30 35.97895 138.88914 23574 ft 411 kts 293°
2026-05-04 15:30 36.02495 138.80056 23949 ft 414 kts 293°
2026-05-04 15:31 36.05615 138.74022 23959 ft 416 kts 293°
2026-05-04 15:31 36.07175 138.71009 23963 ft 416 kts 293°
2026-05-04 15:32 36.11858 138.61945 23952 ft 415 kts 293°
2026-05-04 15:32 36.14970 138.55906 23980 ft 416 kts 293°
2026-05-04 15:33 36.18053 138.49909 23975 ft 415 kts 293°
2026-05-04 15:34 36.22692 138.40866 23994 ft 413 kts 292°
2026-05-04 15:34 36.24238 138.37846 24029 ft 414 kts 292°
2026-05-04 15:34 36.27326 138.31807 23996 ft 414 kts 292°
2026-05-04 15:35 36.30401 138.25783 24004 ft 413 kts 292°
2026-05-04 15:35 36.31918 138.22809 24000 ft 413 kts 292°
2026-05-04 15:35 36.32954 138.20775 23996 ft 413 kts 293°
2026-05-04 15:36 36.33862 138.18993 24023 ft 413 kts 293°
2026-05-04 15:36 36.35394 138.15979 24015 ft 413 kts 293°
2026-05-04 15:36 36.36927 138.12963 24010 ft 413 kts 293°
2026-05-04 15:37 36.38458 138.09949 24024 ft 413 kts 293°
2026-05-04 15:37 36.39991 138.06927 24020 ft 413 kts 293°
2026-05-04 15:37 36.41522 138.03906 24027 ft 414 kts 293°
2026-05-04 15:37 36.43055 138.00879 24007 ft 413 kts 293°
2026-05-04 15:38 36.44585 137.97860 24038 ft 412 kts 293°
2026-05-04 15:38 36.46092 137.94882 24034 ft 411 kts 293°
2026-05-04 15:38 36.47611 137.91878 24030 ft 409 kts 293°
2026-05-04 15:38 36.49056 137.88855 24038 ft 405 kts 290°
2026-05-04 15:39 36.50419 137.85791 24062 ft 404 kts 289°
2026-05-04 15:39 36.51757 137.82713 24056 ft 405 kts 289°
2026-05-04 15:39 36.53977 137.77575 24101 ft 406 kts 290°
2026-05-04 15:40 36.55319 137.74488 24071 ft 403 kts 290°
2026-05-04 15:40 36.56653 137.71428 24092 ft 400 kts 290°
2026-05-04 15:40 36.57975 137.68406 23733 ft 396 kts 290°
2026-05-04 15:40 36.59691 137.64489 22951 ft 384 kts 290°
2026-05-04 15:41 36.60955 137.61601 22330 ft 376 kts 290°
2026-05-04 15:41 36.61793 137.59682 21977 ft 371 kts 290°
2026-05-04 15:41 36.63417 137.55948 21108 ft 365 kts 291°
2026-05-04 15:41 36.64213 137.54119 20761 ft 361 kts 291°
2026-05-04 15:42 36.65405 137.51375 20142 ft 359 kts 291°
2026-05-04 15:42 36.66588 137.48650 19559 ft 356 kts 291°
2026-05-04 15:42 36.67764 137.45938 18976 ft 354 kts 291°
2026-05-04 15:42 36.68932 137.43243 18377 ft 352 kts 292°
2026-05-04 15:43 36.70091 137.40569 17727 ft 349 kts 292°
2026-05-04 15:43 36.71236 137.37926 17149 ft 344 kts 293°
2026-05-04 15:43 36.72365 137.35318 16575 ft 340 kts 294°
2026-05-04 15:43 36.73480 137.32739 16015 ft 336 kts 295°
2026-05-04 15:44 36.74583 137.30184 15465 ft 333 kts 295°
2026-05-04 15:44 36.75661 137.27688 14931 ft 329 kts 296°
2026-05-04 15:44 36.76741 137.25182 14398 ft 327 kts 296°
2026-05-04 15:44 36.77827 137.22665 13861 ft 324 kts 297°
2026-05-04 15:45 36.78842 137.20311 13314 ft 322 kts 297°
2026-05-04 15:45 36.79897 137.17862 12744 ft 322 kts 297°
2026-05-04 15:45 36.81017 137.15439 12210 ft 322 kts 306°
2026-05-04 15:45 36.82661 137.13513 11694 ft 330 kts 321°
2026-05-04 15:46 36.84708 137.12142 11236 ft 335 kts 335°
2026-05-04 15:46 36.86915 137.11242 10989 ft 326 kts 340°
2026-05-04 15:46 36.89067 137.10513 10824 ft 314 kts 341°
2026-05-04 15:46 36.91141 137.09824 10685 ft 302 kts 340°
2026-05-04 15:47 36.93134 137.09146 10549 ft 291 kts 340°
2026-05-04 15:47 36.95050 137.08477 10422 ft 280 kts 340°
2026-05-04 15:47 36.96872 137.07829 10303 ft 272 kts 340°
2026-05-04 15:47 36.98671 137.07184 10193 ft 265 kts 339°
2026-05-04 15:48 37.00417 137.06556 10087 ft 258 kts 339°
2026-05-04 15:48 37.02118 137.05944 9970 ft 252 kts 339°
2026-05-04 15:48 37.05604 137.05773 9434 ft 266 kts 16°
2026-05-04 15:49 37.07193 137.07000 9183 ft 275 kts 36°
2026-05-04 15:49 37.08575 137.08660 8915 ft 276 kts 38°
2026-05-04 15:49 37.09949 137.10351 8623 ft 277 kts 39°
2026-05-04 15:49 37.11040 137.12347 8306 ft 286 kts 68°
2026-05-04 15:50 37.11316 137.14817 8083 ft 288 kts 87°
2026-05-04 15:50 37.11252 137.17323 7801 ft 287 kts 89°
2026-05-04 15:50 37.11176 137.19810 7520 ft 285 kts 89°
2026-05-04 15:50 37.11113 137.22294 7246 ft 285 kts 89°
2026-05-04 15:51 37.10722 137.24729 6931 ft 289 kts 116°
2026-05-04 15:51 37.09560 137.26713 6711 ft 285 kts 134°
2026-05-04 15:51 37.08172 137.28485 6451 ft 284 kts 135°
2026-05-04 15:51 37.06733 137.30155 6130 ft 282 kts 147°
2026-05-04 15:52 37.04930 137.31003 5847 ft 275 kts 177°
2026-05-04 15:52 37.03063 137.30873 5579 ft 266 kts 196°
2026-05-04 15:52 37.01275 137.30322 5332 ft 263 kts 198°
2026-05-04 15:52 36.99507 137.29737 5057 ft 262 kts 198°
2026-05-04 15:53 36.97768 137.29162 4781 ft 261 kts 198°
2026-05-04 15:53 36.96016 137.28589 4510 ft 259 kts 198°
2026-05-04 15:53 36.94274 137.28026 4265 ft 258 kts 198°
2026-05-04 15:53 36.92543 137.27471 4004 ft 256 kts 197°
2026-05-04 15:54 36.90838 137.26928 3886 ft 249 kts 197°
2026-05-04 15:54 36.89189 137.26406 3751 ft 238 kts 197°
2026-05-04 15:54 36.87649 137.25921 3682 ft 219 kts 198°
2026-05-04 15:54 36.86228 137.25474 3583 ft 201 kts 198°
2026-05-04 15:55 36.84942 137.25070 3488 ft 186 kts 198°
2026-05-04 15:55 36.83686 137.24671 3337 ft 182 kts 197°
2026-05-04 15:55 36.82480 137.24276 3176 ft 176 kts 197°
2026-05-04 15:55 36.81298 137.23887 2985 ft 175 kts 197°
2026-05-04 15:56 36.80117 137.23499 2814 ft 176 kts 196°
2026-05-04 15:56 36.78924 137.23107 2619 ft 177 kts 196°
2026-05-04 15:56 36.77744 137.22721 2436 ft 174 kts 197°
2026-05-04 15:56 36.76590 137.22344 2216 ft 174 kts 195°
2026-05-04 15:57 36.75420 137.21961 1996 ft 172 kts 195°
2026-05-04 15:57 36.74289 137.21592 1759 ft 165 kts 195°
2026-05-04 15:57 36.73180 137.21244 1543 ft 164 kts 194°
2026-05-04 15:57 36.72061 137.20907 1348 ft 167 kts 193°
2026-05-04 15:58 36.70927 137.20567 1130 ft 166 kts 193°
2026-05-04 15:58 36.69843 137.20243 937 ft 152 kts 193°
2026-05-04 15:58 36.68860 137.19928 746 ft 143 kts 193°
2026-05-04 15:58 36.67895 137.19644 575 ft 142 kts 193°
2026-05-04 15:59 36.66931 137.19360 391 ft 142 kts 192°
2026-05-04 15:59 36.65982 137.19085 186 ft 140 kts 193°
2026-05-04 15:59 36.65066 137.18803 68 ft 124 kts 192°
2026-05-04 15:59 36.64369 137.18602 67 ft 81 kts 193°
2026-05-04 16:00 36.64070 137.18512 72 ft 23 kts 190°
2026-05-04 16:00 36.63996 137.18482 70 ft 6 kts 274°
2026-05-04 16:00 36.64004 137.18454 70 ft 1 kts 319°
2026-05-04 16:00 36.64005 137.18453 70 ft 0 kts 319°
2026-05-04 16:01 36.64036 137.18452 68 ft 16 kts 18°
2026-05-04 16:01 36.64138 137.18528 70 ft 27 kts 16°
2026-05-04 16:01 36.64367 137.18600 72 ft 25 kts 18°
2026-05-04 16:02 36.64409 137.18724 73 ft 13 kts 73°
2026-05-04 16:02 36.64449 137.18780 69 ft 2 kts 96°
2026-05-04 16:02 36.64418 137.18829 72 ft 7 kts 128°
2026-05-04 16:03 36.64404 137.18852 68 ft 0 kts 127°